{"data":{"norad_id":62630,"epoch":"2026-05-25T02:38:01.510080Z","epoch_age_seconds":68790,"freshness":"FRESH","line1":"1 62630U 25009X   26145.10973970  .00000780  00000+0  58915-4 0  9993","line2":"2 62630  97.4857 218.9680 0004014 200.4011 159.7056 15.05143171 74518","mean_motion":15.05143171,"eccentricity":0.0004014,"inclination_deg":97.4857,"raan_deg":218.968,"arg_perigee_deg":200.4011,"mean_anomaly_deg":159.7056,"bstar":5.8915e-5,"rev_number":7451,"period_min":95.671961826946,"perigee_km":548.28485580175,"apogee_km":553.84762016121,"semimajor_km":6929.2032379815,"source":"CELESTRAK","updated_at":"2026-05-25T13:38:03.132228Z"}}